User: anonymous   Login
Location: Christchurch
(43.5330°S, 172.6330°E)
Time: 18:06:08
(UTC+12:00)
Language:

Cosmos 2322 - Orbit

View from above orbital plane
View from above orbital plane
View from above satellite
View from above satellite

Ground track
Ground track

The orbit data is extracted from the following two-line orbital elements,

1 23704U 95058A   19110.87151801  .00000025  00000-0  38569-4 0  9998
2 23704  70.9820  73.8200 0009646 167.1325 193.0045 14.13394132210886
Epoch (UTC): 20 April 2019 20:54:59
Eccentricity: 0.0009646
inclination: 70.9820°
perigee height: 841 km
apogee height: 855 km
right ascension of ascending node: 73.8200°
argument of perigee: 167.1325°
revolutions per day: 14.13394132
mean anomaly at epoch: 193.0045°
orbit number at epoch: 21088

The dashed part of the orbit path shows where the satellite is in the earth's shadow,  

DLR